Home > Weather > Southend-on-Sea > Past weeks

Flag for United Kingdom Past Weather in Southend-on-Sea, England, United Kingdom — Yesterday and Last 2 Weeks

Now
57 °F

Passing clouds.


Feels Like: 56 °F
Forecast: 50 / 75 °F
Wind: 7 mph from North

Location: Southend Airport-On-Sea

Current Time: Aug 29, 2016 at 6:41:12 AM

Latest Report: Aug 29, 2016 at 6:20 AM


Visibility: N/A

Pressure: 30.09 "Hg

Humidity: 88%

Dew Point: 54 °F

Location of Southend-on-SeaLocation

Past Weather in Southend-on-Sea — Graph

°F

Southend-on-Sea Temperature Yesterday

Maximum temperature yesterday: 73 °F (at 1:20 PM)
Minimum temperature yesterday: 61 °F (at 10:20 PM)
Average temperature yesterday: 67 °F

High & Low Weather Summary for the Past Weeks

 TemperatureHumidityPressure
High91 °F (Aug 24, 3:20 PM)94% (Aug 15, 4:20 AM)30.30 "Hg (Aug 15, 4:20 AM)
Low48 °F (Aug 15, 4:20 AM)34% (Aug 26, 4:20 PM)29.68 "Hg (Aug 19, 3:20 PM)
Average67 °F70%30.01 "Hg
* Reported Aug 14 5:20 AM — Aug 29 5:20 AM, Southend-on-Sea, Weather by CustomWeather, © 2016

Note: Actual official high and low records may vary slightly from our data, if they occured in-between our weather recording intervals... More about our weather records

Advertising

Southend-on-Sea Weather History for the Previous 24 Hours

Scroll right to see more
 ConditionsComfort  
Time TempWeatherWind HumidityBarometerVisibility
5:20 AM
Mon, Aug 29
57 °FClear.5 mph88%30.07 "Hg10 mi
4:50 AM57 °FPassing clouds.3 mph88%30.07 "HgN/A
4:20 AM59 °FPassing clouds.5 mph82%30.07 "HgN/A
2:50 AM61 °FPassing clouds.7 mph88%30.04 "HgN/A
1:50 AM63 °FPassing clouds.2 mph83%30.04 "HgN/A
12:50 AM63 °FClear.2 mph83%30.01 "Hg10 mi
10:50 PM
Sun, Aug 28
63 °FClear.8 mph83%29.98 "Hg10 mi
10:20 PM61 °FClear.8 mph88%29.98 "Hg10 mi
9:50 PM63 °FClear.9 mph88%29.98 "Hg10 mi
9:20 PM63 °FClear.13 mph83%29.98 "Hg10 mi
8:50 PM64 °FSunny.13 mph78%29.95 "Hg10 mi
8:20 PM64 °FPassing clouds.13 mph78%29.95 "HgN/A
7:50 PM66 °FPassing clouds.15 mph73%29.95 "HgN/A
7:20 PM66 °FScattered clouds.15 mph73%29.95 "HgN/A
6:50 PM68 °FPassing clouds.15 mph69%29.95 "HgN/A
6:20 PM70 °FPassing clouds.17 mph64%29.92 "HgN/A
5:50 PM70 °FPassing clouds.17 mph64%29.92 "HgN/A
5:20 PM70 °FScattered clouds.18 mph64%29.92 "HgN/A
4:50 PM70 °FScattered showers. Scattered clouds.20 mph64%29.92 "HgN/A
4:20 PM73 °FScattered showers. Scattered clouds.18 mph57%29.92 "HgN/A
3:50 PM72 °FScattered showers. Scattered clouds.18 mph61%29.92 "HgN/A
3:20 PM70 °FScattered showers. Scattered clouds.20 mph60%29.92 "HgN/A
2:50 PM72 °FPartly sunny.18 mph61%29.92 "HgN/A
2:20 PM72 °FScattered clouds.18 mph61%29.92 "HgN/A
1:50 PM72 °FScattered showers. Scattered clouds.22 mph61%29.92 "HgN/A
1:20 PM73 °FScattered showers. Scattered clouds.17 mph65%29.89 "HgN/A
12:50 PM64 °FSprinkles. Partly sunny.24 mph73%29.89 "HgN/A
12:20 PM72 °FScattered clouds.16 mph57%29.89 "HgN/A
11:50 AM72 °FPartly sunny.16 mph61%29.89 "HgN/A
11:20 AM70 °FPartly sunny.17 mph64%29.89 "HgN/A
10:50 AM72 °FScattered clouds.17 mph61%29.89 "HgN/A
10:20 AM68 °FScattered clouds.14 mph64%29.89 "HgN/A
9:50 AM70 °FScattered clouds.18 mph64%29.89 "HgN/A
9:20 AM68 °FPassing clouds.14 mph69%29.89 "HgN/A
8:50 AM68 °FPassing clouds.14 mph69%29.89 "HgN/A
8:20 AM66 °FPassing clouds.13 mph73%29.89 "HgN/A
7:20 AM63 °FPassing clouds.12 mph73%29.89 "HgN/A
6:50 AM64 °FPassing clouds.13 mph73%29.89 "HgN/A
6:20 AM63 °FPassing clouds.10 mph77%29.86 "HgN/A
Weather by CustomWeather, © 2016

See weather overviewHow to use our weather pages